Regional Weather Roundup
Issued by NWS

Home | Current Version | Previous Version | Graphics & Text | Print | Product List | Glossary On
Versions: 1 2 3 4 5 6 7 8 9 10 11 12 13 14 15 16 17 18 19 20 21 22 23 24 25 26 27 28 29 30 31 32 33 34 35 36 37 38 39 40 41 42 43 44 45 46 47 48 49 50
223
ASUS45 KSLC 212310
RWRUT

UTAH REGIONAL WEATHER ROUNDUP
NATIONAL WEATHER SERVICE SALT LAKE CITY UT
400 PM MST WED FEB 21 2018

UTZ001>011-023>025-220000-

NORTHERN UTAH

CITY           SKY/WX    TMP DP  RH WIND       PRES   REMARKS
BRIGHAM CITY     N/A     30   2  31 CALM      30.12S
DUGWAY         MOSUNNY   27  18  67 SE8       30.10S WCI  19
HILL AFB         N/A     28   7  41 CALM      30.07F
LOGAN            N/A     20   7  57 CALM      30.12S
OGDEN            N/A     31   8  38 CALM      30.08F
SALT LAKE CITY   N/A     32  13  45 N7        30.10S WCI  26
TOOELE VALLEY    N/A     28  18  64 NE5       30.11S WCI  23
WENDOVER         N/A     30  10  43 SE9       30.09S WCI  22
HEBER CITY       N/A     23   5  46 CALM      30.02S
WEST JORDAN      N/A     26  15  61 NW7       30.09S WCI  19

$$

UTZ011>015-024>027-220000-

CENTRAL/NORTHEAST UTAH

CITY           SKY/WX    TMP DP  RH WIND       PRES   REMARKS
PROVO AIRPORT    N/A     26  11  52 CALM      30.10F
MOAB/CANYONLAN CLOUDY    36  10  34 NW5       30.02S WCI  32
DELTA            N/A     25  14  63 CALM      30.08S
PRICE            N/A     31   2  29 S3        30.00F
RICHFIELD      SUNNY     30  10  43 CALM      30.02S
VERNAL           N/A     26   4  38 CALM      30.07F

$$

UTZ013>016-019>022-027-220000-

SOUTHERN UTAH

CITY           SKY/WX    TMP DP  RH WIND       PRES   REMARKS
BRYCE CANYON   CLOUDY    24   6  46 SE9       29.95S WCI  14
CEDAR CITY     PTSUNNY   30   9  41 N5        29.99S WCI  25
MILFORD          N/A     23  16  74 NE9       30.04S WCI  13
ST GEORGE        N/A     45  11  25 NW7       30.07S
HANKSVILLE       N/A     36   5  27 N6        30.05F WCI  31
KANAB          PTSUNNY   37   9  30 SW3       30.05S
BLANDING         N/A     35  16  46 S6        30.06S WCI  29

$$

REGIONAL REPORTS     COLORADO/ARIZONA

CITY           SKY/WX    TMP DP  RH WIND       PRES   REMARKS
CRAIG, CO      PTSUNNY   24   5  44 CALM      30.05S
GRAND JUNCTION   N/A     35   7  31 CALM      30.03F
RIFLE, CO      PTSUNNY   31   9  39 E6        30.03F WCI  25
MONTROSE, CO     N/A     32  14  47 W6        30.03S WCI  26
CORTEZ, CO     CLOUDY    39  16  39 SE12      29.99F WCI  32
COLORADO CITY    N/A     37  12  35 SE6       30.04S WCI  33
PAGE, AZ       CLOUDY    40   9  28 E6        30.01S
GRAND CANYON   CLOUDY    32   7  35 SW12      29.98S WCI  23
KINGMAN, AZ    CLOUDY    47   7  19 SW14      30.04S
FLAGSTAFF, AZ  PTSUNNY   31  11  43 SW12      29.96S WCI  22

$$

REGIONAL REPORTS    NEVADA/IDAHO/WYOMING

CITY           SKY/WX    TMP DP  RH WIND       PRES   REMARKS
LAS VEGAS, NV  PTSUNNY   50   9  19 N3        30.07F
ELY, NY        CLOUDY    29   5  36 SW9       29.97R WCI  20
ELKO, NV         N/A     30  10  43 W14       30.05R WCI  19
POCATELLO, ID    N/A     30  14  51 N5        30.09F WCI  25
BURLEY, ID       N/A     30   7  37 VRB5      30.07F WCI  25
FORT BRIDGER,    N/A      6  -3  65 CALM      30.05S
EVANSTON, WY     N/A     15   4  61 E7        29.99R WCI   5
ROCK SPRINGS,    N/A     14   1  56 NW3       30.04S

$$




USA.gov is the U.S. government's official web portal to all federal, state and local government web resources and services.